Date String (YYYY-MM-DD hh:mm:ss) UTC,Instrument flags,absolute air pressure of the measurement (hPa),sample flow rate (lpm),inlet stack bypass flow (lpm),air temperature of the measurement (°C),ambient temperature measured by the external sensor (°C),aerosol sample conditioner tube jacket temperature (°C),OPC LED temperature (°C),internal box temperature (°C),relative humidity of the measurement (%),span deviation,mass concentration of particles derived from Lorenz-Mie calculation of OPC scattering (μg/m³),mass concentration of particles derived from Lorenz-Mie calculation of OPC scattering (μg/m³),mass concentration of particles derived from Lorenz-Mie calculation of OPC scattering (μg/m³)
DateTimeUTC,F1_M11,P_M11,Q1_M11,Q2_M11,T1_M11,T2_M11,T3_M11,T4_M11,T5_M11,U1_M11,ZSPAN_M11,X2_M11,X0_M11,X1_M11
2024-04-08 19:00:00,SystemResetWarning,0825.7,5.00,000.00,020.5,019.9,000.0,028.9,022.3,010.1,0000.0,0003.45,0010.80,0002.34
2024-04-08 19:01:00,SystemResetWarning,0825.7,4.99,000.00,020.5,019.9,000.0,028.9,022.3,010.1,0000.0,0003.45,0010.62,0002.33
2024-04-08 19:02:00,SystemResetWarning,0825.7,5.00,000.00,020.5,019.9,000.0,028.9,022.3,010.0,0000.0,0003.44,0010.83,0002.33
2024-04-08 19:03:00,SystemResetWarning,0825.7,5.02,000.00,020.5,019.9,000.0,028.9,022.3,009.7,0000.0,0003.38,0010.56,0002.34
2024-04-08 19:04:00,SystemResetWarning,0825.8,5.00,000.00,020.5,019.9,000.0,028.9,022.3,010.0,0000.0,0003.37,0009.30,0002.33
2024-04-08 19:05:00,SystemResetWarning,0825.8,4.98,000.00,020.5,019.9,000.0,028.9,022.3,010.0,0000.0,0003.35,0009.30,0002.31
2024-04-08 19:06:00,SystemResetWarning,0825.8,5.00,000.00,020.5,019.9,000.0,029.0,022.3,010.2,0000.0,0003.36,0009.41,0002.30
2024-04-08 19:07:00,SystemResetWarning,0825.8,5.00,000.00,020.5,019.9,000.0,029.0,022.3,010.4,0000.0,0003.38,0008.40,0002.27
2024-04-08 19:08:00,SystemResetWarning,0825.7,5.01,000.00,020.6,019.9,000.0,029.0,022.3,009.8,0000.0,0003.37,0007.79,0002.27
2024-04-08 19:09:00,SystemResetWarning,0825.8,5.01,000.00,020.6,019.9,000.0,029.0,022.3,010.2,0000.0,0003.40,0007.72,0002.28
2024-04-08 19:10:00,SystemResetWarning,0825.7,4.99,000.00,020.6,019.9,000.0,029.0,022.3,010.3,0000.0,0003.40,0007.74,0002.30
2024-04-08 19:11:00,SystemResetWarning,0825.8,5.00,000.00,020.6,019.9,000.0,029.0,022.3,010.3,0000.0,0003.42,0007.88,0002.30
2024-04-08 19:12:00,SystemResetWarning,0825.8,4.99,000.00,020.6,019.9,000.0,029.0,022.3,010.0,0000.0,0003.43,0008.04,0002.29
2024-04-08 19:13:00,SystemResetWarning,0825.8,4.99,000.00,020.6,019.9,000.0,029.0,022.3,009.9,0000.0,0003.43,0007.70,0002.30
2024-04-08 19:14:00,SystemResetWarning,0825.8,5.00,000.00,020.6,019.9,000.0,029.0,022.3,009.9,0000.0,0003.48,0007.61,0002.31
2024-04-08 19:15:00,SystemResetWarning,0825.8,5.01,000.00,020.6,019.9,000.0,029.0,022.3,009.9,0000.0,0003.50,0007.68,0002.31
2024-04-08 19:16:00,SystemResetWarning,0825.8,5.01,000.00,020.6,019.9,000.0,029.0,022.3,010.1,0000.0,0003.51,0008.03,0002.33
2024-04-08 19:17:00,SystemResetWarning,0825.8,5.00,000.00,020.6,019.9,000.0,029.0,022.3,009.4,0000.0,0003.50,0008.03,0002.34
2024-04-08 19:18:00,SystemResetWarning,0825.9,5.00,000.00,020.6,019.9,000.0,029.0,022.3,009.4,0000.0,0003.45,0007.87,0002.34
2024-04-08 19:19:00,SystemResetWarning,0825.9,4.99,000.00,020.6,019.9,000.0,029.0,022.3,009.5,0000.0,0003.40,0007.87,0002.34
2024-04-08 19:20:00,SystemResetWarning,0825.9,5.00,000.00,020.6,019.9,000.0,029.0,022.3,009.2,0000.0,0003.34,0007.79,0002.32
2024-04-08 19:21:00,SystemResetWarning,0825.9,5.00,000.00,020.6,019.9,000.0,029.0,022.3,009.2,0000.0,0003.30,0007.67,0002.30
2024-04-08 19:22:00,SystemResetWarning,0825.9,5.00,000.00,020.6,019.9,000.0,029.0,022.3,009.1,0000.0,0003.30,0008.11,0002.30
2024-04-08 19:23:00,SystemResetWarning,0825.9,5.01,000.00,020.6,020.0,000.0,029.0,022.3,009.2,0000.0,0003.28,0008.14,0002.30
2024-04-08 19:24:00,SystemResetWarning,0825.9,5.01,000.00,020.6,020.0,000.0,029.0,022.4,009.3,0000.0,0003.24,0008.03,0002.30
2024-04-08 19:25:00,SystemResetWarning,0825.9,5.01,000.00,020.6,020.0,000.0,029.0,022.4,009.4,0000.0,0003.19,0007.86,0002.27
2024-04-08 19:26:00,SystemResetWarning,0825.9,4.99,000.00,020.6,020.0,000.0,029.0,022.4,009.4,0000.0,0003.17,0007.81,0002.25
2024-04-08 19:27:00,SystemResetWarning,0825.9,4.99,000.00,020.6,020.1,000.0,029.0,022.4,009.2,0000.0,0003.18,0008.07,0002.23
2024-04-08 19:28:00,SystemResetWarning,0825.9,4.99,000.00,020.6,020.1,000.0,029.0,022.4,009.4,0000.0,0003.16,0007.92,0002.23
2024-04-08 19:29:00,SystemResetWarning,0826.0,5.00,000.00,020.7,020.1,000.0,029.0,022.4,008.2,0000.0,0003.16,0007.92,0002.22
2024-04-08 19:30:00,SystemResetWarning,0825.9,5.00,000.00,020.7,020.1,000.0,029.1,022.4,006.4,0000.0,0003.14,0007.81,0002.20
2024-04-08 19:31:00,SystemResetWarning,0825.9,5.00,000.00,020.7,020.1,000.0,029.1,022.5,006.6,0000.0,0003.14,0008.24,0002.16
2024-04-08 19:32:00,SystemResetWarning,0826.0,5.00,000.00,020.7,020.2,000.0,029.1,022.5,006.5,0000.0,0003.12,0008.76,0002.10
2024-04-08 19:33:00,SystemResetWarning,0825.9,5.01,000.00,020.7,020.2,000.0,029.1,022.5,006.6,0000.0,0003.13,0013.23,0002.05
2024-04-08 19:34:00,SystemResetWarning,0825.9,5.00,000.00,020.7,020.2,000.0,029.1,022.5,006.6,0000.0,0003.10,0013.01,0002.00
2024-04-08 19:35:00,SystemResetWarning,0825.9,5.00,000.00,020.7,020.2,000.0,029.1,022.5,006.6,0000.0,0003.06,0013.29,0001.95
2024-04-08 19:36:00,SystemResetWarning,0825.9,5.00,000.00,020.7,020.2,000.0,029.1,022.5,006.6,0000.0,0003.03,0013.69,0001.90
2024-04-08 19:37:00,SystemResetWarning,0825.9,5.00,000.00,020.8,020.2,000.0,029.1,022.5,006.5,0000.0,0002.99,0013.72,0001.86
2024-04-08 19:38:00,SystemResetWarning,0825.9,5.00,000.00,020.8,020.2,000.0,029.1,022.5,006.5,0000.0,0002.88,0013.05,0001.83
2024-04-08 19:39:00,SystemResetWarning,0825.9,4.99,000.00,020.8,020.3,000.0,029.1,022.6,006.8,0000.0,0002.82,0013.26,0001.78
2024-04-08 19:40:00,SystemResetWarning,0825.9,5.00,000.00,020.8,020.3,000.0,029.1,022.6,006.9,0000.0,0002.77,0013.91,0001.74
2024-04-08 19:41:00,SystemResetWarning,0825.9,5.00,000.00,020.8,020.3,000.0,029.2,022.6,006.2,0000.0,0002.73,0014.08,0001.70
2024-04-08 19:42:00,SystemResetWarning,0825.9,5.00,000.00,020.8,020.3,000.0,029.2,022.6,006.0,0000.0,0002.73,0014.40,0001.70
2024-04-08 19:43:00,SystemResetWarning,0825.9,4.99,000.00,020.8,020.3,000.0,029.2,022.6,005.7,0000.0,0002.68,0013.92,0001.69
2024-04-08 19:44:00,SystemResetWarning,0825.9,5.00,000.00,020.8,020.3,000.0,029.2,022.6,006.0,0000.0,0002.62,0008.83,0001.70
2024-04-08 19:45:00,SystemResetWarning,0825.9,5.00,000.00,020.8,020.3,000.0,029.2,022.6,006.0,0000.0,0002.66,0009.16,0001.71
2024-04-08 19:46:00,SystemResetWarning,0825.9,5.01,000.00,020.9,020.3,000.0,029.2,022.6,006.1,0000.0,0002.66,0009.83,0001.70
2024-04-08 19:47:00,SystemResetWarning,0825.9,5.00,000.00,020.9,020.3,000.0,029.2,022.6,005.7,0000.0,0002.68,0009.43,0001.69
2024-04-08 19:48:00,SystemResetWarning,0825.9,5.00,000.00,020.9,020.3,000.0,029.2,022.6,005.7,0000.0,0002.61,0009.31,0001.68
2024-04-08 19:49:00,SystemResetWarning,0825.9,5.00,000.00,020.9,020.3,000.0,029.2,022.6,005.9,0000.0,0002.57,0009.29,0001.68
2024-04-08 19:50:00,SystemResetWarning,0825.9,5.01,000.00,020.9,020.3,000.0,029.3,022.6,006.0,0000.0,0002.53,0008.88,0001.67
2024-04-08 19:51:00,SystemResetWarning,0825.9,4.99,000.00,020.9,020.3,000.0,029.3,022.6,005.7,0000.0,0002.55,0008.12,0001.67
2024-04-08 19:52:00,SystemResetWarning,0825.9,4.99,000.00,020.9,020.3,000.0,029.3,022.7,005.9,0000.0,0002.57,0007.99,0001.68
2024-04-08 19:53:00,SystemResetWarning,0825.9,5.00,000.00,020.9,020.4,000.0,029.3,022.7,005.5,0000.0,0002.58,0007.28,0001.68
2024-04-08 19:54:00,SystemResetWarning,0825.9,5.00,000.00,020.9,020.4,000.0,029.3,022.7,005.2,0000.0,0002.67,0007.12,0001.69
2024-04-08 19:55:00,SystemResetWarning,0825.9,5.01,000.00,020.9,020.4,000.0,029.3,022.7,005.2,0000.0,0002.67,0007.41,0001.68
2024-04-08 19:56:00,SystemResetWarning,0825.9,5.00,000.00,020.9,020.4,000.0,029.3,022.7,005.2,0000.0,0002.64,0008.22,0001.69
2024-04-08 19:57:00,SystemResetWarning,0825.9,5.00,000.00,020.9,020.4,000.0,029.3,022.7,005.0,0000.0,0002.64,0007.43,0001.69
2024-04-08 19:58:00,SystemResetWarning,0825.9,4.99,000.00,021.0,020.5,000.0,029.3,022.7,005.2,0000.0,0002.67,0007.68,0001.69
2024-04-08 19:59:00,SystemResetWarning,0825.9,4.99,000.00,021.0,020.5,000.0,029.3,022.7,004.9,0000.0,0002.75,0008.31,0001.70
